Dewpoint
55 54 55 54 54 54 54 54 54 54 55 54 55 55 56 55 56 56 57 57 58 58 59 59 60 60 60 61 61 61 60 55 51 50 42 46 60 63 64 64 65 65 65 55 45 31 24 24 23 23 29 30 36 32 40 37 37 37 26 28 23 25 18 23 18 22 22 18 18 20 19 18 18 20 21 21 19 22 23 25 30 41 49 56 57 58 59 59
54 54 54 54 53 53 54 54 54 54 54 54 54 55 55 55 56 56 57 57 58 58 59 59 59 60 61 60 61 60 58 50 44 46 43 57 63 63 63 65 64 64 63 48 36 30 24 20 20 21 29 21 41 33 39 37 38 32 27 24 23 25 19 19 18 19 17 19 17 19 19 18 18 18 21 16 18 19 21 22 31 36 48 56 57 58 58 59
55 55 54 53 53 53 53 54 54 54 53 54 53 54 54 55 55 56 56 57 57 57 58 59 59 60 60 60 60 60 57 48 38 31 44 58 62 63 65 64 64 64 53 47 43 34 22 20 22 16 27 23 27 31 33 34 29 30 29 20 23 26 20 21 22 21 21 18 17 18 18 17 19 18 22 16 15 19 17 19 25 31 41 54 56 56 57 58
55 54 54 53 53 53 53 53 54 53 53 52 53 53 54 54 55 56 56 57 58 58 58 58 59 60 60 60 60 58 52 37 30 38 54 61 62 63 62 63 61 60 58 53 47 46 33 25 22 13 25 22 20 33 26 31 20 26 25 27 23 17 21 20 22 23 22 17 17 17 18 18 19 21 17 16 14 16 16 17 20 23 33 50 55 56 56 56
55 54 53 53 52 52 52 53 53 52 52 52 53 53 54 54 55 55 56 56 57 58 58 58 59 60 59 60 59 56 43 16 21 50 52 60 62 62 62 62 61 55 50 46 33 30 27 22 19 20 24 13 28 22 19 26 27 27 19 24 21 22 22 22 23 24 23 21 18 17 15 17 21 20 19 15 12 14 14 15 18 20 30 44 54 55 55 55
55 54 53 52 52 52 52 52 52 52 52 52 53 53 54 54 55 55 56 57 57 57 58 58 59 59 60 59 54 55 31 3 39 54 58 62 63 62 61 61 62 55 42 32 28 27 23 20 19 21 18 15 18 13 12 19 22 21 16 21 23 22 21 23 24 23 22 21 19 18 21 21 19 20 21 16 13 15 21 25 25 25 28 40 53 54 53 54
55 54 53 52 52 52 51 52 52 52 52 53 53 53 53 54 54 55 56 56 57 57 58 58 59 59 58 58 54 48 33 30 47 53 61 63 61 64 58 60 60 45 37 31 29 27 29 22 18 22 19 18 14 11 17 18 22 21 16 20 22 23 22 24 23 24 22 21 21 22 23 20 20 17 20 20 20 17 23 28 30 32 30 41 49 52 51 53
56 55 53 53 52 51 51 51 52 52 52 52 53 53 54 54 54 55 56 56 56 57 57 58 58 58 57 55 28 31 32 23 48 52 57 59 48 44 56 53 45 47 39 35 30 23 24 20 17 22 14 10 12 15 19 15 16 14 18 23 22 24 24 25 22 22 23 22 22 23 21 20 19 18 22 20 20 19 24 26 32 34 35 39 46 48 48 51
55 54 54 53 52 52 52 51 51 51 51 52 52 53 53 54 54 55 55 56 56 57 57 58 58 58 56 51 40 23 20 46 48 49 49 45 42 39 49 40 44 38 36 30 28 27 28 23 21 18 12 17 17 17 19 9 10 18 18 23 23 23 24 22 23 23 23 25 22 20 21 21 22 23 20 20 21 21 23 25 29 34 34 36 42 44 44 48
55 54 54 53 52 52 51 51 51 51 51 52 52 52 53 53 54 55 55 55 56 57 57 57 58 58 53 42 29 16 37 49 49 45 46 44 41 42 43 47 39 39 35 30 31 33 27 29 28 28 26 18 21 21 23 17 15 23 21 23 22 22 22 24 22 23 24 25 22 21 21 21 23 20 16 18 18 21 23 24 26 29 33 35 37 40 41 43
55 55 54 53 52 52 51 50 51 51 51 52 52 52 53 53 54 54 55 56 56 57 57 58 58 58 52 42 14 8 48 49 49 42 42 42 42 42 43 45 42 42 37 36 37 35 38 36 38 33 27 16 23 22 22 24 26 22 23 23 22 24 25 25 23 22 23 23 23 22 22 23 23 25 19 19 24 23 20 24 26 25 25 29 35 38 40 40
55 55 54 53 53 52 51 51 51 51 51 52 52 53 53 53 54 54 55 56 56 57 57 57 58 55 44 29 22 20 46 45 44 42 46 46 43 42 46 43 43 44 37 34 41 45 43 39 35 24 12 25 20 23 22 25 24 22 21 19 21 23 23 23 22 22 24 23 25 24 18 15 23 21 21 22 26 20 19 23 26 26 26 26 26 31 35 38
55 55 54 54 53 52 51 51 51 51 52 52 52 53 53 54 54 55 55 56 56 57 57 58 57 56 40 14 18 49 48 46 43 42 42 46 43 44 44 47 48 42 39 34 37 42 44 41 32 27 31 22 20 15 24 27 24 23 22 20 20 20 19 21 24 24 23 24 27 20 11 14 17 19 20 22 26 25 22 23 23 24 25 26 27 25 26 30
55 54 54 53 53 51 51 52 51 52 52 52 53 53 53 54 54 55 55 56 57 57 58 57 53 50 33 4 43 49 46 48 47 42 45 47 41 43 43 44 44 41 45 38 41 40 45 42 33 27 34 23 22 31 24 24 22 19 21 22 23 18 18 23 23 24 21 25 26 18 16 14 15 16 21 26 25 23 22 23 23 24 24 26 28 27 27 27
54 54 53 53 52 51 51 51 52 52 52 53 53 53 54 54 55 55 55 56 56 57 57 57 53 31 16 26 42 46 60 50 42 43 46 45 40 39 37 38 36 37 36 40 40 43 39 42 30 25 25 29 29 22 20 20 19 21 14 17 23 18 23 24 26 23 20 24 26 19 21 17 16 17 21 27 26 23 22 23 24 25 24 25 26 28 27 27
54 53 52 51 51 51 51 51 52 52 53 53 53 54 54 55 55 55 56 57 57 57 56 55 53 36 18 19 46 56 49 40 40 48 44 47 47 38 39 38 40 38 35 31 37 38 34 35 29 26 25 24 23 22 21 21 22 22 18 24 19 21 23 22 25 27 24 25 25 17 13 17 15 23 24 26 26 25 24 24 24 24 24 24 23 26 28 29
53 52 51 51 51 51 51 51 52 53 53 53 54 54 55 56 56 56 57 57 57 56 54 43 46 36 18 31 36 42 37 46 48 46 44 45 44 41 39 40 34 34 37 36 39 33 32 27 30 27 29 22 22 26 21 20 22 20 23 17 29 15 19 21 22 24 30 24 22 24 21 20 18 20 21 24 27 25 24 23 24 24 24 23 24 26 28 29
53 52 51 51 51 52 52 52 53 53 53 54 54 55 54 56 57 56 57 57 55 53 52 51 36 21 12 32 30 31 45 43 47 45 44 41 42 41 38 32 35 35 36 29 28 27 30 26 27 24 23 23 18 22 24 18 21 21 20 19 17 21 20 19 20 21 26 24 22 22 22 22 22 22 22 22 24 24 23 23 23 23 23 24 25 25 27 29
54 53 52 52 52 52 53 54 53 53 54 54 55 56 56 56 56 51 53 53 32 20 21 26 16 14 18 19 34 45 47 46 46 41 36 39 43 41 40 34 37 30 30 24 21 25 29 31 32 28 19 18 18 18 23 24 25 26 24 22 24 17 20 15 18 24 24 22 21 21 19 18 19 20 21 21 21 23 23 23 23 23 23 23 24 25 27 29
54 52 51 53 54 54 55 55 54 53 54 54 52 52 50 40 39 36 41 41 32 17 24 23 23 33 39 40 42 42 47 47 33 40 43 43 38 37 32 34 38 34 24 27 29 28 36 24 20 24 23 18 20 21 22 24 15 18 25 24 17 21 20 24 25 25 25 18 18 20 20 20 19 19 19 18 18 19 21 23 23 23 23 23 23 23 24 25
52 52 53 54 55 55 55 55 54 54 55 52 51 49 30 34 21 22 33 35 35 32 31 35 31 31 35 42 43 40 32 34 37 40 45 48 41 29 28 31 27 27 31 31 26 29 33 27 23 28 29 22 18 18 18 17 17 19 23 22 17 26 18 23 25 25 25 17 18 20 17 17 16 16 15 15 15 15 17 19 21 22 23 24 25 25 25 24
54 55 53 53 56 55 55 55 54 55 55 52 52 49 40 43 41 40 28 17 26 38 38 37 35 35 40 37 39 43 39 34 38 41 46 42 36 25 27 29 24 23 28 28 28 26 24 24 26 29 26 22 20 18 18 20 24 25 17 23 23 23 23 24 25 25 25 21 16 19 18 17 18 18 17 15 15 15 15 17 17 17 19 20 22 25 26 28
56 56 56 56 56 56 56 54 55 55 50 50 47 47 43 50 48 47 48 23 20 38 36 33 30 34 37 38 41 42 29 29 31 40 40 41 35 32 28 24 22 22 31 25 25 24 19 25 25 26 23 20 19 20 21 24 27 25 20 16 18 26 21 19 20 23 24 21 19 22 23 23 24 24 24 23 20 18 19 18 20 22 19 19 18 19 21 23
56 57 57 56 56 56 56 55 55 53 49 49 48 48 51 50 50 50 43 23 26 34 33 34 29 35 36 32 38 39 25 25 35 35 41 36 28 34 26 23 21 26 26 25 25 20 20 21 25 23 24 20 21 25 20 18 17 26 28 26 25 24 24 21 22 24 24 21 30 25 23 18 20 22 23 23 24 24 23 22 21 23 27 24 27 27 27 23
57 57 57 57 56 57 56 56 51 49 49 45 45 48 50 50 49 48 34 22 20 32 40 37 38 37 34 44 43 34 29 34 39 37 39 35 28 29 27 24 20 23 27 24 26 25 22 25 30 22 26 27 26 19 26 25 17 20 27 26 25 27 27 29 29 18 17 17 26 26 13 17 20 19 17 13 9 7 17 23 21 21 21 25 25 26 27 36
57 57 57 57 57 56 56 51 49 49 44 41 45 50 50 49 48 46 28 21 18 28 28 24 29 21 42 37 40 42 28 27 37 42 40 40 39 28 26 23 21 20 24 25 21 25 20 28 29 27 26 28 27 25 26 24 22 17 14 34 30 29 30 30 25 18 11 5 21 25 11 13 18 12 10 10 9 8 9 14 18 23 24 25 27 28 31 33
57 57 57 57 56 56 52 49 51 47 44 45 49 51 50 49 49 44 15 19 13 25 19 34 23 26 37 35 36 27 17 22 40 40 36 41 31 39 23 22 22 22 24 26 24 19 26 27 30 32 28 27 26 20 28 22 21 17 28 35 31 29 28 27 28 21 15 24 28 29 23 18 17 11 14 14 13 13 14 14 15 14 17 24 27 29 32 34
57 57 57 57 57 55 51 51 49 47 46 48 49 50 51 49 49 37 24 8 6 26 25 25 28 39 38 35 35 16 23 33 30 34 40 42 37 29 22 21 20 22 23 25 20 29 26 28 30 29 30 27 25 27 29 27 22 24 32 34 31 31 31 31 27 24 23 20 18 24 28 16 21 23 25 20 13 12 15 15 16 16 17 16 21 28 32 35
57 57 57 57 57 56 53 51 50 48 49 49 49 49 51 45 39 17 19 6 26 25 32 19 36 38 36 35 26 29 29 34 23 35 42 37 39 27 21 23 22 23 23 22 20 29 31 32 32 31 30 24 31 33 37 28 24 31 35 36 35 33 31 30 25 24 23 12 14 21 25 10 8 21 15 16 17 15 14 14 15 17 18 20 25 32 39 40
54 57 57 57 56 55 53 53 50 50 49 49 49 49 49 40 22 21 11 2 24 20 30 30 30 30 31 29 25 28 27 34 36 37 33 31 34 33 28 31 27 21 23 31 34 34 32 33 35 34 28 31 34 34 35 34 31 35 34 30 30 29 27 25 25 22 15 4 12 24 25 10 9 16 13 14 18 14 12 14 13 29 36 37 36 38 39 39
53 54 57 56 54 54 53 50 51 51 52 51 49 48 40 34 18 14 3 12 33 30 28 26 29 32 26 25 23 25 33 34 35 31 30 33 30 30 29 23 31 30 27 27 27 32 34 33 30 33 35 34 33 31 33 36 35 34 28 26 21 19 25 24 21 22 6 9 19 25 27 18 8 14 22 20 17 18 13 14 11 30 36 38 36 37 38 39
52 54 56 56 56 55 52 51 52 52 52 50 48 41 27 20 23 13 10 18 20 26 25 24 30 28 24 27 27 25 31 33 33 29 28 29 29 26 26 20 27 24 21 24 23 29 27 29 33 32 35 31 31 29 28 32 34 31 24 15 9 9 18 9 16 9 10 8 17 23 26 21 14 10 20 17 16 15 16 19 25 30 35 37 38 39 39 38
52 53 56 56 55 54 54 53 53 52 52 49 43 37 23 19 9 18 19 18 15 28 25 30 29 25 26 25 24 26 32 29 32 28 32 32 27 28 30 25 29 25 17 24 26 25 26 30 32 33 30 34 30 24 25 25 28 27 21 18 11 5 10 4 10 13 14 19 22 22 22 19 19 20 20 17 16 16 22 24 27 30 35 38 40 39 39 39
52 53 54 55 56 55 54 54 52 53 51 47 36 32 25 9 12 28 19 20 28 32 29 29 28 27 24 19 25 27 26 29 31 28 30 29 27 24 25 28 29 26 28 24 22 26 17 20 27 28 25 33 31 25 25 24 29 29 27 18 18 15 11 5 7 5 12 15 20 23 15 19 13 17 22 20 17 21 26 22 24 30 31 32 35 37 39 38
53 53 54 55 55 54 53 54 54 53 49 44 35 27 18 13 13 17 17 27 30 34 31 30 27 25 24 26 29 27 28 27 31 29 29 27 25 25 23 23 29 26 26 21 22 23 21 22 26 30 31 33 31 32 30 29 26 27 29 26 15 14 19 5 15 13 11 12 10 14 18 21 19 22 25 25 22 20 19 18 18 17 20 30 31 31 32 36
52 53 54 52 53 54 53 54 53 53 49 41 29 23 18 18 17 23 20 33 31 31 28 27 28 24 22 24 31 25 28 29 30 29 28 28 26 24 27 26 25 25 21 14 23 20 22 20 32 31 33 31 30 32 29 26 13 21 26 22 24 28 17 15 15 20 13 9 12 17 19 19 18 8 16 16 15 13 12 11 13 15 17 20 28 30 29 28
49 51 49 52 53 54 53 53 53 52 47 39 28 21 24 23 36 37 39 33 33 30 27 23 26 22 22 22 27 27 28 33 30 27 25 30 26 29 28 29 29 26 24 17 21 27 21 22 31 30 29 31 33 35 34 34 28 27 22 24 28 31 27 17 10 13 8 9 11 14 10 7 5 8 19 13 14 12 15 14 13 16 19 20 25 29 28 29
47 47 48 48 53 54 54 53 53 51 46 38 26 29 34 29 37 38 40 39 33 32 29 25 28 27 23 25 27 27 30 24 29 26 24 29 24 31 28 28 29 25 25 24 17 24 24 14 23 31 32 34 34 32 30 32 33 27 26 32 23 20 16 22 16 7 6 6 9 14 12 11 10 7 8 9 11 12 12 17 17 14 16 19 23 25 27 31
46 44 41 46 54 54 53 53 52 48 43 33 29 29 36 33 38 41 41 39 40 36 27 29 29 27 29 24 28 29 29 21 29 26 23 26 21 28 26 26 28 26 25 24 18 24 23 16 19 29 32 33 31 30 26 27 32 33 32 27 31 24 21 17 18 16 16 7 2 11 7 8 17 13 10 9 13 15 12 13 14 17 17 18 24 28 31 33
42 38 38 52 54 54 53 52 48 46 39 32 32 32 39 35 36 38 38 38 38 36 33 32 31 26 29 27 29 27 30 26 29 28 24 27 23 29 28 27 27 29 24 25 25 30 21 18 13 25 30 30 26 28 26 29 28 27 26 25 26 24 27 24 22 17 11 4 6 5 7 11 15 13 13 14 12 12 12 15 23 24 24 25 28 31 34 38
41 38 39 53 53 53 51 48 44 40 34 35 37 36 39 37 38 37 40 42 41 43 38 36 36 29 29 29 28 30 29 28 30 28 25 26 23 20 30 28 32 29 28 28 27 25 19 18 19 26 27 26 27 30 29 29 28 29 27 26 25 25 19 13 17 22 16 9 10 4 9 14 15 11 11 12 13 19 22 25 23 26 25 26 29 34 39 40
36 29 34 53 52 50 47 40 40 42 38 34 33 37 37 42 41 41 41 41 38 40 41 39 38 35 36 33 33 30 29 27 30 29 27 24 28 28 31 29 29 31 28 25 24 29 22 25 25 24 27 28 29 31 34 31 31 30 28 26 29 25 24 17 14 16 17 20 17 15 9 13 19 15 17 17 19 22 26 22 21 22 22 24 29 38 39 38
34 31 45 52 51 47 43 38 41 40 37 39 41 40 42 42 40 41 40 41 38 40 37 36 37 35 35 36 36 33 30 26 30 29 30 27 29 29 35 33 35 33 30 28 30 31 31 20 17 21 27 31 32 34 33 33 32 29 30 29 27 26 26 23 19 21 21 18 17 15 14 15 23 21 20 19 18 25 26 21 22 26 31 34 34 37 38 37
34 33 41 47 51 48 39 32 34 37 38 40 39 38 41 41 40 40 40 41 39 40 37 37 37 38 37 39 37 34 36 24 30 30 28 30 27 39 39 37 34 31 29 29 26 31 21 25 23 16 16 21 27 29 29 30 29 28 27 30 28 28 27 26 22 21 18 22 21 19 15 17 24 28 26 25 24 22 21 23 28 27 29 31 33 37 38 38
32 32 33 44 48 46 38 35 33 35 36 36 38 37 38 39 41 40 40 40 42 42 39 38 38 40 38 40 38 38 37 32 29 32 32 33 34 37 37 37 36 33 35 37 36 33 27 26 23 18 17 16 16 22 20 24 29 28 27 29 31 27 26 24 23 20 20 21 23 19 17 17 19 25 24 24 23 22 24 27 27 29 28 29 31 32 33 36
29 23 30 36 44 44 43 42 39 34 34 35 35 36 38 37 40 41 41 40 41 42 42 41 42 41 39 38 36 36 35 37 32 31 31 31 32 32 37 36 37 35 36 39 38 32 28 30 24 23 22 20 21 23 27 30 27 26 27 29 29 31 28 26 25 23 21 22 21 22 21 19 18 19 22 23 22 22 24 24 24 26 27 28 30 33 34 34
35 26 26 23 38 39 40 41 38 37 33 35 32 35 36 36 39 39 42 37 41 40 40 40 40 38 38 37 36 36 37 35 37 34 33 33 33 34 38 35 36 37 37 34 39 33 30 27 28 27 25 25 27 29 31 31 28 28 27 27 30 31 30 27 24 22 23 20 20 22 24 23 21 21 22 22 23 24 26 26 26 27 29 30 29 29 33 34
31 31 29 30 29 27 33 36 39 36 36 33 32 33 34 35 37 36 40 39 40 40 37 39 40 38 39 37 36 33 35 35 35 33 35 35 35 35 35 38 35 38 38 37 39 33 31 27 30 28 28 29 30 30 32 31 30 29 29 28 27 29 29 28 27 26 25 23 20 22 25 24 22 22 24 24 24 24 24 26 27 28 28 28 29 30 30 30
35 33 31 31 27 29 31 34 38 37 35 35 33 31 31 34 35 36 38 38 39 39 38 34 36 38 37 38 37 35 35 32 32 35 33 33 34 34 33 35 36 36 38 36 35 35 32 29 31 31 30 31 31 31 32 30 30 30 31 31 29 29 30 30 30 30 29 27 28 27 27 26 26 25 26 26 27 27 27 29 30 30 30 30 30 30 30 30
32 31 28 31 32 31 29 32 35 36 33 35 32 32 30 31 33 35 38 37 35 37 39 36 36 37 37 37 36 35 35 36 35 33 35 35 33 35 34 36 33 34 35 34 34 34 34 30 34 32 30 30 31 31 31 32 31 30 32 33 33 32 30 30 30 30 31 30 30 30 29 28 29 29 29 29 30 30 31 30 29 30 31 31 31 31 31 31
37 34 36 33 29 28 29 29 31 33 33 33 32 32 31 30 30 33 35 38 36 36 38 36 36 37 38 38 37 36 37 37 36 37 35 35 33 36 35 34 39 33 34 34 34 35 34 32 33 32 31 31 32 31 32 32 32 32 32 32 32 32 31 31 30 31 29 29 29 29 28 28 29 30 30 29 30 30 30 30 31 31 31 31 31 31 31 32
37 37 37 36 30 32 27 27 28 32 29 31 32 31 30 30 30 32 30 36 38 38 38 38 37 37 37 37 37 37 38 39 39 41 41 41 43 42 39 41 40 37 33 34 35 34 34 33 32 32 30 30 33 31 32 32 31 30 31 32 33 33 33 33 33 33 32 31 30 28 28 29 29 31 30 30 31 31 31 31 31 32 32 32 31 32 32 33